owner,sensor,date,latitude,longitude,air_pressure(mBar),qcFlag 
WAVCIS,ioos:station:WAVCIS:CSI15:1,2010-11-01T00:00:00Z,28.8332,-90.8320,1014.28,11111222 
WAVCIS,ioos:station:WAVCIS:CSI15:1,2010-11-01T01:00:00Z,28.8332,-90.8320,1014.78,11111222 
WAVCIS,ioos:station:WAVCIS:CSI15:1,2010-11-01T02:00:00Z,28.8332,-90.8320,1015.38,11111222 
WAVCIS,ioos:station:WAVCIS:CSI15:1,2010-11-01T03:00:00Z,28.8332,-90.8320,1015.9,11111222 
WAVCIS,ioos:station:WAVCIS:CSI15:1,2010-11-01T04:00:00Z,28.8332,-90.8320,1015.82,11111222 
WAVCIS,ioos:station:WAVCIS:CSI15:1,2010-11-01T05:00:00Z,28.8332,-90.8320,1015.68,11111222 
WAVCIS,ioos:station:WAVCIS:CSI15:1,2010-11-01T06:00:00Z,28.8332,-90.8320,1015.73,11111222 
WAVCIS,ioos:station:WAVCIS:CSI15:1,2010-11-01T07:00:00Z,28.8332,-90.8320,1015.54,11111222 
WAVCIS,ioos:station:WAVCIS:CSI15:1,2010-11-01T08:00:00Z,28.8332,-90.8320,1015.26,11111222 
WAVCIS,ioos:station:WAVCIS:CSI15:1,2010-11-01T09:00:00Z,28.8332,-90.8320,1014.98,11111222 
WAVCIS,ioos:station:WAVCIS:CSI15:1,2010-11-01T10:00:00Z,28.8332,-90.8320,1015.22,11111222 
WAVCIS,ioos:station:WAVCIS:CSI15:1,2010-11-01T11:00:00Z,28.8332,-90.8320,1015.84,11111222 
WAVCIS,ioos:station:WAVCIS:CSI15:1,2010-11-01T12:00:00Z,28.8332,-90.8320,1016.31,11111222 
WAVCIS,ioos:station:WAVCIS:CSI15:1,2010-11-01T13:00:00Z,28.8332,-90.8320,1016.89,11111222 
WAVCIS,ioos:station:WAVCIS:CSI15:1,2010-11-01T14:00:00Z,28.8332,-90.8320,1017.54,11111222 
WAVCIS,ioos:station:WAVCIS:CSI15:1,2010-11-01T15:00:00Z,28.8332,-90.8320,1017.76,11111222 
WAVCIS,ioos:station:WAVCIS:CSI15:1,2010-11-01T16:00:00Z,28.8332,-90.8320,1017.4,11111222 
WAVCIS,ioos:station:WAVCIS:CSI15:1,2010-11-01T17:00:00Z,28.8332,-90.8320,1017.07,11111222 
WAVCIS,ioos:station:WAVCIS:CSI15:1,2010-11-01T18:00:00Z,28.8332,-90.8320,1016.49,11111222 
WAVCIS,ioos:station:WAVCIS:CSI15:1,2010-11-01T19:00:00Z,28.8332,-90.8320,1015.48,11111222 
WAVCIS,ioos:station:WAVCIS:CSI15:1,2010-11-01T20:00:00Z,28.8332,-90.8320,1015.4,11111222 
WAVCIS,ioos:station:WAVCIS:CSI15:1,2010-11-01T21:00:00Z,28.8332,-90.8320,1015.42,11111222 
WAVCIS,ioos:station:WAVCIS:CSI15:1,2010-11-01T22:00:00Z,28.8332,-90.8320,1015.06,11111222 
WAVCIS,ioos:station:WAVCIS:CSI15:1,2010-11-01T23:00:00Z,28.8332,-90.8320,1015.11,11111222 
WAVCIS,ioos:station:WAVCIS:CSI15:1,2010-11-02T00:00:00Z,28.8332,-90.8320,1015.8,11111222 
WAVCIS,ioos:station:WAVCIS:CSI15:1,2010-11-02T01:00:00Z,28.8332,-90.8320,1016.23,11111222 
WAVCIS,ioos:station:WAVCIS:CSI15:1,2010-11-02T02:00:00Z,28.8332,-90.8320,1016.54,11111222 
WAVCIS,ioos:station:WAVCIS:CSI15:1,2010-11-02T03:00:00Z,28.8332,-90.8320,1016.97,11111222 
WAVCIS,ioos:station:WAVCIS:CSI15:1,2010-11-02T04:00:00Z,28.8332,-90.8320,1016.85,11111222 
WAVCIS,ioos:station:WAVCIS:CSI15:1,2010-11-02T05:00:00Z,28.8332,-90.8320,1015.22,11111222 
WAVCIS,ioos:station:WAVCIS:CSI15:1,2010-11-02T06:00:00Z,28.8332,-90.8320,1013.58,11111222 
WAVCIS,ioos:station:WAVCIS:CSI15:1,2010-11-02T07:00:00Z,28.8332,-90.8320,1013.45,11111222 
WAVCIS,ioos:station:WAVCIS:CSI15:1,2010-11-02T08:00:00Z,28.8332,-90.8320,1012.96,11111222 
WAVCIS,ioos:station:WAVCIS:CSI15:1,2010-11-02T09:00:00Z,28.8332,-90.8320,1012.48,11111222 
WAVCIS,ioos:station:WAVCIS:CSI15:1,2010-11-02T10:00:00Z,28.8332,-90.8320,1013.52,11111222 
WAVCIS,ioos:station:WAVCIS:CSI15:1,2010-11-02T11:00:00Z,28.8332,-90.8320,1012.0,11111222 
WAVCIS,ioos:station:WAVCIS:CSI15:1,2010-11-02T12:00:00Z,28.8332,-90.8320,1012.0,11111222 
WAVCIS,ioos:station:WAVCIS:CSI15:1,2010-11-02T13:00:00Z,28.8332,-90.8320,1012.21,11111222 
WAVCIS,ioos:station:WAVCIS:CSI15:1,2010-11-02T14:00:00Z,28.8332,-90.8320,1011.97,11111222 
WAVCIS,ioos:station:WAVCIS:CSI15:1,2010-11-02T15:00:00Z,28.8332,-90.8320,1011.64,11111222 
WAVCIS,ioos:station:WAVCIS:CSI15:1,2010-11-02T16:00:00Z,28.8332,-90.8320,1011.1,11111222 
WAVCIS,ioos:station:WAVCIS:CSI15:1,2010-11-02T17:00:00Z,28.8332,-90.8320,1011.81,11111222 
WAVCIS,ioos:station:WAVCIS:CSI15:1,2010-11-02T18:00:00Z,28.8332,-90.8320,1010.53,11111222 
WAVCIS,ioos:station:WAVCIS:CSI15:1,2010-11-02T19:00:00Z,28.8332,-90.8320,1009.4,11111222 
WAVCIS,ioos:station:WAVCIS:CSI15:1,2010-11-02T20:00:00Z,28.8332,-90.8320,1009.36,11111222 
WAVCIS,ioos:station:WAVCIS:CSI15:1,2010-11-02T21:00:00Z,28.8332,-90.8320,1009.16,11111222 
WAVCIS,ioos:station:WAVCIS:CSI15:1,2010-11-02T22:00:00Z,28.8332,-90.8320,1007.69,11111222 
WAVCIS,ioos:station:WAVCIS:CSI15:1,2010-11-02T23:00:00Z,28.8332,-90.8320,1008.09,11111222 
WAVCIS,ioos:station:WAVCIS:CSI15:1,2010-11-03T00:00:00Z,28.8332,-90.8320,1008.4,11111222 
WAVCIS,ioos:station:WAVCIS:CSI15:1,2010-11-03T01:00:00Z,28.8332,-90.8320,1009.05,11111222 
WAVCIS,ioos:station:WAVCIS:CSI15:1,2010-11-03T02:00:00Z,28.8332,-90.8320,1009.23,11111222 
WAVCIS,ioos:station:WAVCIS:CSI15:1,2010-11-03T03:00:00Z,28.8332,-90.8320,1009.07,11111222 
WAVCIS,ioos:station:WAVCIS:CSI15:1,2010-11-03T04:00:00Z,28.8332,-90.8320,1009.03,11111222 
WAVCIS,ioos:station:WAVCIS:CSI15:1,2010-11-03T05:00:00Z,28.8332,-90.8320,1008.48,11111222 
WAVCIS,ioos:station:WAVCIS:CSI15:1,2010-11-03T06:00:00Z,28.8332,-90.8320,1007.98,11111222 
WAVCIS,ioos:station:WAVCIS:CSI15:1,2010-11-03T07:00:00Z,28.8332,-90.8320,1007.42,11111222 
WAVCIS,ioos:station:WAVCIS:CSI15:1,2010-11-03T08:00:00Z,28.8332,-90.8320,1007.43,11111222 
WAVCIS,ioos:station:WAVCIS:CSI15:1,2010-11-03T09:00:00Z,28.8332,-90.8320,1007.084,11111222 
WAVCIS,ioos:station:WAVCIS:CSI15:1,2010-11-03T10:00:00Z,28.8332,-90.8320,1006.482,11111222 
WAVCIS,ioos:station:WAVCIS:CSI15:1,2010-11-03T11:00:00Z,28.8332,-90.8320,1006.634,11111222 
WAVCIS,ioos:station:WAVCIS:CSI15:1,2010-11-03T12:00:00Z,28.8332,-90.8320,1007.51,11111222 
WAVCIS,ioos:station:WAVCIS:CSI15:1,2010-11-03T13:00:00Z,28.8332,-90.8320,1007.49,11111222 
WAVCIS,ioos:station:WAVCIS:CSI15:1,2010-11-03T14:00:00Z,28.8332,-90.8320,1007.84,11111222 
WAVCIS,ioos:station:WAVCIS:CSI15:1,2010-11-03T15:00:00Z,28.8332,-90.8320,1008.19,11111222 
WAVCIS,ioos:station:WAVCIS:CSI15:1,2010-11-03T16:00:00Z,28.8332,-90.8320,1008.13,11111222 
WAVCIS,ioos:station:WAVCIS:CSI15:1,2010-11-03T17:00:00Z,28.8332,-90.8320,1007.57,11111222 
WAVCIS,ioos:station:WAVCIS:CSI15:1,2010-11-03T18:00:00Z,28.8332,-90.8320,1006.898,11111222 
WAVCIS,ioos:station:WAVCIS:CSI15:1,2010-11-03T19:00:00Z,28.8332,-90.8320,1006.181,11111222 
WAVCIS,ioos:station:WAVCIS:CSI15:1,2010-11-03T20:00:00Z,28.8332,-90.8320,1005.664,11111222 
WAVCIS,ioos:station:WAVCIS:CSI15:1,2010-11-03T21:00:00Z,28.8332,-90.8320,1005.104,11111222 
WAVCIS,ioos:station:WAVCIS:CSI15:1,2010-11-03T22:00:00Z,28.8332,-90.8320,1005.077,11111222 
WAVCIS,ioos:station:WAVCIS:CSI15:1,2010-11-03T23:00:00Z,28.8332,-90.8320,1005.064,11111222 
WAVCIS,ioos:station:WAVCIS:CSI15:1,2010-11-04T00:00:00Z,28.8332,-90.8320,1005.504,11111222 
WAVCIS,ioos:station:WAVCIS:CSI15:1,2010-11-04T01:00:00Z,28.8332,-90.8320,1005.488,11111222 
WAVCIS,ioos:station:WAVCIS:CSI15:1,2010-11-04T02:00:00Z,28.8332,-90.8320,1005.785,11111222 
WAVCIS,ioos:station:WAVCIS:CSI15:1,2010-11-04T03:00:00Z,28.8332,-90.8320,1005.885,11111222 
WAVCIS,ioos:station:WAVCIS:CSI15:1,2010-11-04T04:00:00Z,28.8332,-90.8320,1005.762,11111222 
WAVCIS,ioos:station:WAVCIS:CSI15:1,2010-11-04T05:00:00Z,28.8332,-90.8320,1005.589,11111222 
WAVCIS,ioos:station:WAVCIS:CSI15:1,2010-11-04T06:00:00Z,28.8332,-90.8320,1005.169,11111222 
WAVCIS,ioos:station:WAVCIS:CSI15:1,2010-11-04T07:00:00Z,28.8332,-90.8320,1004.783,11111222 
WAVCIS,ioos:station:WAVCIS:CSI15:1,2010-11-04T08:00:00Z,28.8332,-90.8320,1003.815,11111222 
WAVCIS,ioos:station:WAVCIS:CSI15:1,2010-11-04T09:00:00Z,28.8332,-90.8320,1003.896,11111222 
WAVCIS,ioos:station:WAVCIS:CSI15:1,2010-11-04T10:00:00Z,28.8332,-90.8320,1004.105,11111222 
WAVCIS,ioos:station:WAVCIS:CSI15:1,2010-11-04T11:00:00Z,28.8332,-90.8320,1003.715,11111222 
WAVCIS,ioos:station:WAVCIS:CSI15:1,2010-11-04T12:00:00Z,28.8332,-90.8320,1004.642,11111222 
WAVCIS,ioos:station:WAVCIS:CSI15:1,2010-11-04T13:00:00Z,28.8332,-90.8320,1005.569,11111222 
WAVCIS,ioos:station:WAVCIS:CSI15:1,2010-11-04T14:00:00Z,28.8332,-90.8320,1006.677,11111222 
WAVCIS,ioos:station:WAVCIS:CSI15:1,2010-11-04T15:00:00Z,28.8332,-90.8320,1007.52,11111222 
WAVCIS,ioos:station:WAVCIS:CSI15:1,2010-11-04T16:00:00Z,28.8332,-90.8320,1007.87,11111222 
WAVCIS,ioos:station:WAVCIS:CSI15:1,2010-11-04T17:00:00Z,28.8332,-90.8320,1007.91,11111222 
WAVCIS,ioos:station:WAVCIS:CSI15:1,2010-11-04T18:00:00Z,28.8332,-90.8320,1007.88,11111222 
WAVCIS,ioos:station:WAVCIS:CSI15:1,2010-11-04T19:00:00Z,28.8332,-90.8320,1007.237,11111222 
WAVCIS,ioos:station:WAVCIS:CSI15:1,2010-11-04T20:00:00Z,28.8332,-90.8320,1007.66,11111222 
WAVCIS,ioos:station:WAVCIS:CSI15:1,2010-11-04T21:00:00Z,28.8332,-90.8320,1007.73,11111222 
WAVCIS,ioos:station:WAVCIS:CSI15:1,2010-11-04T22:00:00Z,28.8332,-90.8320,1008.11,11111222 
WAVCIS,ioos:station:WAVCIS:CSI15:1,2010-11-04T23:00:00Z,28.8332,-90.8320,1008.68,11111222 
WAVCIS,ioos:station:WAVCIS:CSI15:1,2010-11-05T00:00:00Z,28.8332,-90.8320,1010.15,11111222 
WAVCIS,ioos:station:WAVCIS:CSI15:1,2010-11-05T01:00:00Z,28.8332,-90.8320,1011.21,11111222 
WAVCIS,ioos:station:WAVCIS:CSI15:1,2010-11-05T02:00:00Z,28.8332,-90.8320,1011.86,11111222 
WAVCIS,ioos:station:WAVCIS:CSI15:1,2010-11-05T03:00:00Z,28.8332,-90.8320,1012.6,11111222 
WAVCIS,ioos:station:WAVCIS:CSI15:1,2010-11-05T04:00:00Z,28.8332,-90.8320,1013.48,11111222 
WAVCIS,ioos:station:WAVCIS:CSI15:1,2010-11-05T05:00:00Z,28.8332,-90.8320,1014.03,11111222 
WAVCIS,ioos:station:WAVCIS:CSI15:1,2010-11-05T06:00:00Z,28.8332,-90.8320,1014.01,11111222 
WAVCIS,ioos:station:WAVCIS:CSI15:1,2010-11-05T07:00:00Z,28.8332,-90.8320,1013.92,11111222 
WAVCIS,ioos:station:WAVCIS:CSI15:1,2010-11-05T08:00:00Z,28.8332,-90.8320,1013.63,11111222 
WAVCIS,ioos:station:WAVCIS:CSI15:1,2010-11-05T09:00:00Z,28.8332,-90.8320,1013.49,11111222 
WAVCIS,ioos:station:WAVCIS:CSI15:1,2010-11-05T10:00:00Z,28.8332,-90.8320,1013.85,11111222 
WAVCIS,ioos:station:WAVCIS:CSI15:1,2010-11-05T11:00:00Z,28.8332,-90.8320,1014.34,11111222 
WAVCIS,ioos:station:WAVCIS:CSI15:1,2010-11-05T12:00:00Z,28.8332,-90.8320,1014.59,11111222 
WAVCIS,ioos:station:WAVCIS:CSI15:1,2010-11-05T13:00:00Z,28.8332,-90.8320,1015.52,11111222 
WAVCIS,ioos:station:WAVCIS:CSI15:1,2010-11-05T14:00:00Z,28.8332,-90.8320,1016.45,11111222 
WAVCIS,ioos:station:WAVCIS:CSI15:1,2010-11-05T15:00:00Z,28.8332,-90.8320,1017.1,11111222 
WAVCIS,ioos:station:WAVCIS:CSI15:1,2010-11-05T16:00:00Z,28.8332,-90.8320,1017.34,11111222 
WAVCIS,ioos:station:WAVCIS:CSI15:1,2010-11-05T17:00:00Z,28.8332,-90.8320,1017.4,11111222 
WAVCIS,ioos:station:WAVCIS:CSI15:1,2010-11-05T18:00:00Z,28.8332,-90.8320,1016.85,11111222 
WAVCIS,ioos:station:WAVCIS:CSI15:1,2010-11-05T19:00:00Z,28.8332,-90.8320,1016.28,11111222 
WAVCIS,ioos:station:WAVCIS:CSI15:1,2010-11-05T20:00:00Z,28.8332,-90.8320,1016.0,11111222 
WAVCIS,ioos:station:WAVCIS:CSI15:1,2010-11-05T21:00:00Z,28.8332,-90.8320,1015.83,11111222 
WAVCIS,ioos:station:WAVCIS:CSI15:1,2010-11-05T22:00:00Z,28.8332,-90.8320,1016.07,11111222 
WAVCIS,ioos:station:WAVCIS:CSI15:1,2010-11-05T23:00:00Z,28.8332,-90.8320,1016.48,11111222 
WAVCIS,ioos:station:WAVCIS:CSI15:1,2010-11-06T00:00:00Z,28.8332,-90.8320,1017.34,11111222 
WAVCIS,ioos:station:WAVCIS:CSI15:1,2010-11-06T01:00:00Z,28.8332,-90.8320,1018.22,11111222 
WAVCIS,ioos:station:WAVCIS:CSI15:1,2010-11-06T02:00:00Z,28.8332,-90.8320,1019.12,11111222 
WAVCIS,ioos:station:WAVCIS:CSI15:1,2010-11-06T03:00:00Z,28.8332,-90.8320,1020.12,11111222 
WAVCIS,ioos:station:WAVCIS:CSI15:1,2010-11-06T04:00:00Z,28.8332,-90.8320,1020.74,11111222 
WAVCIS,ioos:station:WAVCIS:CSI15:1,2010-11-06T05:00:00Z,28.8332,-90.8320,1021.09,11111222 
WAVCIS,ioos:station:WAVCIS:CSI15:1,2010-11-06T06:00:00Z,28.8332,-90.8320,1021.06,11111222 
WAVCIS,ioos:station:WAVCIS:CSI15:1,2010-11-06T07:00:00Z,28.8332,-90.8320,1021.21,11111222 
WAVCIS,ioos:station:WAVCIS:CSI15:1,2010-11-06T08:00:00Z,28.8332,-90.8320,1021.3,11111222 
WAVCIS,ioos:station:WAVCIS:CSI15:1,2010-11-06T09:00:00Z,28.8332,-90.8320,1021.49,11111222 
WAVCIS,ioos:station:WAVCIS:CSI15:1,2010-11-06T10:00:00Z,28.8332,-90.8320,1021.92,11111222 
WAVCIS,ioos:station:WAVCIS:CSI15:1,2010-11-06T11:00:00Z,28.8332,-90.8320,1022.47,11111222 
WAVCIS,ioos:station:WAVCIS:CSI15:1,2010-11-06T12:00:00Z,28.8332,-90.8320,1023.23,11111222 
WAVCIS,ioos:station:WAVCIS:CSI15:1,2010-11-06T13:00:00Z,28.8332,-90.8320,1024.05,11111222 
WAVCIS,ioos:station:WAVCIS:CSI15:1,2010-11-06T14:00:00Z,28.8332,-90.8320,1024.76,11111222 
WAVCIS,ioos:station:WAVCIS:CSI15:1,2010-11-06T15:00:00Z,28.8332,-90.8320,1025.12,11111222 
WAVCIS,ioos:station:WAVCIS:CSI15:1,2010-11-06T16:00:00Z,28.8332,-90.8320,1025.35,11111222 
WAVCIS,ioos:station:WAVCIS:CSI15:1,2010-11-06T17:00:00Z,28.8332,-90.8320,1025.38,11111222 
WAVCIS,ioos:station:WAVCIS:CSI15:1,2010-11-06T18:00:00Z,28.8332,-90.8320,1024.83,11111222 
WAVCIS,ioos:station:WAVCIS:CSI15:1,2010-11-06T19:00:00Z,28.8332,-90.8320,1024.3,11111222 
WAVCIS,ioos:station:WAVCIS:CSI15:1,2010-11-06T20:00:00Z,28.8332,-90.8320,1024.07,11111222 
WAVCIS,ioos:station:WAVCIS:CSI15:1,2010-11-06T21:00:00Z,28.8332,-90.8320,1024.01,11111222 
WAVCIS,ioos:station:WAVCIS:CSI15:1,2010-11-06T22:00:00Z,28.8332,-90.8320,1023.93,11111222 
WAVCIS,ioos:station:WAVCIS:CSI15:1,2010-11-06T23:00:00Z,28.8332,-90.8320,1024.05,11111222 
WAVCIS,ioos:station:WAVCIS:CSI15:1,2010-11-07T00:00:00Z,28.8332,-90.8320,1024.33,11111222 
WAVCIS,ioos:station:WAVCIS:CSI15:1,2010-11-07T01:00:00Z,28.8332,-90.8320,1024.7,11111222 
WAVCIS,ioos:station:WAVCIS:CSI15:1,2010-11-07T02:00:00Z,28.8332,-90.8320,1025.07,11111222 
WAVCIS,ioos:station:WAVCIS:CSI15:1,2010-11-07T03:00:00Z,28.8332,-90.8320,1025.67,11111222 
WAVCIS,ioos:station:WAVCIS:CSI15:1,2010-11-07T04:00:00Z,28.8332,-90.8320,1026.08,11111222 
WAVCIS,ioos:station:WAVCIS:CSI15:1,2010-11-07T05:00:00Z,28.8332,-90.8320,1025.95,11111222 
WAVCIS,ioos:station:WAVCIS:CSI15:1,2010-11-07T06:00:00Z,28.8332,-90.8320,1025.73,11111222 
WAVCIS,ioos:station:WAVCIS:CSI15:1,2010-11-07T07:00:00Z,28.8332,-90.8320,1025.74,11111222 
WAVCIS,ioos:station:WAVCIS:CSI15:1,2010-11-07T08:00:00Z,28.8332,-90.8320,1025.39,11111222 
WAVCIS,ioos:station:WAVCIS:CSI15:1,2010-11-07T09:00:00Z,28.8332,-90.8320,1025.23,11111222 
WAVCIS,ioos:station:WAVCIS:CSI15:1,2010-11-07T10:00:00Z,28.8332,-90.8320,1025.14,11111222 
WAVCIS,ioos:station:WAVCIS:CSI15:1,2010-11-07T11:00:00Z,28.8332,-90.8320,1025.07,11111222 
WAVCIS,ioos:station:WAVCIS:CSI15:1,2010-11-07T12:00:00Z,28.8332,-90.8320,1025.28,11111222 
WAVCIS,ioos:station:WAVCIS:CSI15:1,2010-11-07T13:00:00Z,28.8332,-90.8320,1025.87,11111222 
WAVCIS,ioos:station:WAVCIS:CSI15:1,2010-11-07T14:00:00Z,28.8332,-90.8320,1026.16,11111222 
WAVCIS,ioos:station:WAVCIS:CSI15:1,2010-11-07T15:00:00Z,28.8332,-90.8320,1026.42,11111222 
WAVCIS,ioos:station:WAVCIS:CSI15:1,2010-11-07T16:00:00Z,28.8332,-90.8320,1026.57,11111222 
WAVCIS,ioos:station:WAVCIS:CSI15:1,2010-11-07T17:00:00Z,28.8332,-90.8320,1026.19,11111222 
WAVCIS,ioos:station:WAVCIS:CSI15:1,2010-11-07T18:00:00Z,28.8332,-90.8320,1025.15,11111222 
WAVCIS,ioos:station:WAVCIS:CSI15:1,2010-11-07T19:00:00Z,28.8332,-90.8320,1024.21,11111222 
WAVCIS,ioos:station:WAVCIS:CSI15:1,2010-11-07T20:00:00Z,28.8332,-90.8320,1023.61,11111222 
WAVCIS,ioos:station:WAVCIS:CSI15:1,2010-11-07T21:00:00Z,28.8332,-90.8320,1023.09,11111222 
WAVCIS,ioos:station:WAVCIS:CSI15:1,2010-11-07T22:00:00Z,28.8332,-90.8320,1022.98,11111222 
WAVCIS,ioos:station:WAVCIS:CSI15:1,2010-11-07T23:00:00Z,28.8332,-90.8320,1022.85,11111222 
WAVCIS,ioos:station:WAVCIS:CSI15:1,2010-11-08T00:00:00Z,28.8332,-90.8320,1022.86,11111222 
WAVCIS,ioos:station:WAVCIS:CSI15:1,2010-11-08T01:00:00Z,28.8332,-90.8320,1022.74,11111222 
WAVCIS,ioos:station:WAVCIS:CSI15:1,2010-11-08T02:00:00Z,28.8332,-90.8320,1022.9,11111222 
WAVCIS,ioos:station:WAVCIS:CSI15:1,2010-11-08T03:00:00Z,28.8332,-90.8320,1022.78,11111222 
WAVCIS,ioos:station:WAVCIS:CSI15:1,2010-11-08T04:00:00Z,28.8332,-90.8320,1022.38,11111222 
WAVCIS,ioos:station:WAVCIS:CSI15:1,2010-11-08T05:00:00Z,28.8332,-90.8320,1021.91,11111222 
WAVCIS,ioos:station:WAVCIS:CSI15:1,2010-11-08T06:00:00Z,28.8332,-90.8320,1021.13,11111222 
WAVCIS,ioos:station:WAVCIS:CSI15:1,2010-11-08T07:00:00Z,28.8332,-90.8320,1020.56,11111222 
WAVCIS,ioos:station:WAVCIS:CSI15:1,2010-11-08T08:00:00Z,28.8332,-90.8320,1020.16,11111222 
WAVCIS,ioos:station:WAVCIS:CSI15:1,2010-11-08T09:00:00Z,28.8332,-90.8320,1019.83,11111222 
WAVCIS,ioos:station:WAVCIS:CSI15:1,2010-11-08T10:00:00Z,28.8332,-90.8320,1019.7,11111222 
WAVCIS,ioos:station:WAVCIS:CSI15:1,2010-11-08T11:00:00Z,28.8332,-90.8320,1019.52,11111222 
WAVCIS,ioos:station:WAVCIS:CSI15:1,2010-11-08T12:00:00Z,28.8332,-90.8320,1019.57,11111222 
WAVCIS,ioos:station:WAVCIS:CSI15:1,2010-11-08T13:00:00Z,28.8332,-90.8320,1019.74,11111222 
WAVCIS,ioos:station:WAVCIS:CSI15:1,2010-11-08T14:00:00Z,28.8332,-90.8320,1020.05,11111222 
WAVCIS,ioos:station:WAVCIS:CSI15:1,2010-11-08T15:00:00Z,28.8332,-90.8320,1020.25,11111222 
WAVCIS,ioos:station:WAVCIS:CSI15:1,2010-11-08T16:00:00Z,28.8332,-90.8320,1020.37,11111222 
WAVCIS,ioos:station:WAVCIS:CSI15:1,2010-11-08T17:00:00Z,28.8332,-90.8320,1019.87,11111222 
WAVCIS,ioos:station:WAVCIS:CSI15:1,2010-11-08T18:00:00Z,28.8332,-90.8320,1019.03,11111222 
WAVCIS,ioos:station:WAVCIS:CSI15:1,2010-11-08T19:00:00Z,28.8332,-90.8320,1017.99,11111222 
WAVCIS,ioos:station:WAVCIS:CSI15:1,2010-11-08T20:00:00Z,28.8332,-90.8320,1017.18,11111222 
WAVCIS,ioos:station:WAVCIS:CSI15:1,2010-11-08T21:00:00Z,28.8332,-90.8320,1016.67,11111222 
WAVCIS,ioos:station:WAVCIS:CSI15:1,2010-11-08T22:00:00Z,28.8332,-90.8320,1016.47,11111222 
WAVCIS,ioos:station:WAVCIS:CSI15:1,2010-11-08T23:00:00Z,28.8332,-90.8320,1016.34,11111222 
WAVCIS,ioos:station:WAVCIS:CSI15:1,2010-11-09T00:00:00Z,28.8332,-90.8320,1016.25,11111222 
WAVCIS,ioos:station:WAVCIS:CSI15:1,2010-11-09T01:00:00Z,28.8332,-90.8320,1016.55,11111222 
WAVCIS,ioos:station:WAVCIS:CSI15:1,2010-11-09T02:00:00Z,28.8332,-90.8320,1016.48,11111222 
WAVCIS,ioos:station:WAVCIS:CSI15:1,2010-11-09T03:00:00Z,28.8332,-90.8320,1016.32,11111222 
WAVCIS,ioos:station:WAVCIS:CSI15:1,2010-11-09T04:00:00Z,28.8332,-90.8320,1015.85,11111222 
WAVCIS,ioos:station:WAVCIS:CSI15:1,2010-11-09T05:00:00Z,28.8332,-90.8320,1015.69,11111222 
WAVCIS,ioos:station:WAVCIS:CSI15:1,2010-11-09T06:00:00Z,28.8332,-90.8320,1015.34,11111222 
WAVCIS,ioos:station:WAVCIS:CSI15:1,2010-11-09T07:00:00Z,28.8332,-90.8320,1015.01,11111222 
WAVCIS,ioos:station:WAVCIS:CSI15:1,2010-11-09T08:00:00Z,28.8332,-90.8320,1014.59,11111222 
WAVCIS,ioos:station:WAVCIS:CSI15:1,2010-11-09T09:00:00Z,28.8332,-90.8320,1014.42,11111222 
WAVCIS,ioos:station:WAVCIS:CSI15:1,2010-11-09T10:00:00Z,28.8332,-90.8320,1014.5,11111222 
WAVCIS,ioos:station:WAVCIS:CSI15:1,2010-11-09T11:00:00Z,28.8332,-90.8320,1014.44,11111222 
WAVCIS,ioos:station:WAVCIS:CSI15:1,2010-11-09T12:00:00Z,28.8332,-90.8320,1014.66,11111222 
WAVCIS,ioos:station:WAVCIS:CSI15:1,2010-11-09T13:00:00Z,28.8332,-90.8320,1014.93,11111222 
WAVCIS,ioos:station:WAVCIS:CSI15:1,2010-11-09T14:00:00Z,28.8332,-90.8320,1015.57,11111222 
WAVCIS,ioos:station:WAVCIS:CSI15:1,2010-11-09T15:00:00Z,28.8332,-90.8320,1016.08,11111222 
WAVCIS,ioos:station:WAVCIS:CSI15:1,2010-11-09T16:00:00Z,28.8332,-90.8320,1016.09,11111222 
WAVCIS,ioos:station:WAVCIS:CSI15:1,2010-11-09T17:00:00Z,28.8332,-90.8320,1015.55,11111222 
WAVCIS,ioos:station:WAVCIS:CSI15:1,2010-11-09T18:00:00Z,28.8332,-90.8320,1014.91,11111222 
WAVCIS,ioos:station:WAVCIS:CSI15:1,2010-11-09T19:00:00Z,28.8332,-90.8320,1014.22,11111222 
WAVCIS,ioos:station:WAVCIS:CSI15:1,2010-11-09T20:00:00Z,28.8332,-90.8320,1013.78,11111222 
WAVCIS,ioos:station:WAVCIS:CSI15:1,2010-11-09T21:00:00Z,28.8332,-90.8320,1013.39,11111222 
WAVCIS,ioos:station:WAVCIS:CSI15:1,2010-11-09T22:00:00Z,28.8332,-90.8320,1013.16,11111222 
WAVCIS,ioos:station:WAVCIS:CSI15:1,2010-11-09T23:00:00Z,28.8332,-90.8320,1012.92,11111222 
WAVCIS,ioos:station:WAVCIS:CSI15:1,2010-11-10T00:00:00Z,28.8332,-90.8320,1013.22,11111222 
WAVCIS,ioos:station:WAVCIS:CSI15:1,2010-11-10T01:00:00Z,28.8332,-90.8320,1013.47,11111222 
WAVCIS,ioos:station:WAVCIS:CSI15:1,2010-11-10T02:00:00Z,28.8332,-90.8320,1013.65,11111222 
WAVCIS,ioos:station:WAVCIS:CSI15:1,2010-11-10T03:00:00Z,28.8332,-90.8320,1013.77,11111222 
WAVCIS,ioos:station:WAVCIS:CSI15:1,2010-11-10T04:00:00Z,28.8332,-90.8320,1013.77,11111222 
WAVCIS,ioos:station:WAVCIS:CSI15:1,2010-11-10T05:00:00Z,28.8332,-90.8320,1013.82,11111222 
WAVCIS,ioos:station:WAVCIS:CSI15:1,2010-11-10T06:00:00Z,28.8332,-90.8320,1013.53,11111222 
WAVCIS,ioos:station:WAVCIS:CSI15:1,2010-11-10T07:00:00Z,28.8332,-90.8320,1013.35,11111222 
WAVCIS,ioos:station:WAVCIS:CSI15:1,2010-11-10T08:00:00Z,28.8332,-90.8320,1013.29,11111222 
WAVCIS,ioos:station:WAVCIS:CSI15:1,2010-11-10T09:00:00Z,28.8332,-90.8320,1013.35,11111222 
WAVCIS,ioos:station:WAVCIS:CSI15:1,2010-11-10T10:00:00Z,28.8332,-90.8320,1013.46,11111222 
WAVCIS,ioos:station:WAVCIS:CSI15:1,2010-11-10T11:00:00Z,28.8332,-90.8320,1013.77,11111222 
WAVCIS,ioos:station:WAVCIS:CSI15:1,2010-11-10T12:00:00Z,28.8332,-90.8320,1014.17,11111222 
WAVCIS,ioos:station:WAVCIS:CSI15:1,2010-11-10T13:00:00Z,28.8332,-90.8320,1015.01,11111222 
WAVCIS,ioos:station:WAVCIS:CSI15:1,2010-11-10T14:00:00Z,28.8332,-90.8320,1015.47,11111222 
WAVCIS,ioos:station:WAVCIS:CSI15:1,2010-11-10T15:00:00Z,28.8332,-90.8320,1015.91,11111222 
WAVCIS,ioos:station:WAVCIS:CSI15:1,2010-11-10T16:00:00Z,28.8332,-90.8320,1016.11,11111222 
WAVCIS,ioos:station:WAVCIS:CSI15:1,2010-11-10T17:00:00Z,28.8332,-90.8320,1015.95,11111222 
WAVCIS,ioos:station:WAVCIS:CSI15:1,2010-11-10T18:00:00Z,28.8332,-90.8320,1015.6,11111222 
WAVCIS,ioos:station:WAVCIS:CSI15:1,2010-11-10T19:00:00Z,28.8332,-90.8320,1015.27,11111222 
WAVCIS,ioos:station:WAVCIS:CSI15:1,2010-11-10T20:00:00Z,28.8332,-90.8320,1015.13,11111222 
WAVCIS,ioos:station:WAVCIS:CSI15:1,2010-11-10T21:00:00Z,28.8332,-90.8320,1015.0,11111222 
WAVCIS,ioos:station:WAVCIS:CSI15:1,2010-11-10T22:00:00Z,28.8332,-90.8320,1014.97,11111222 
WAVCIS,ioos:station:WAVCIS:CSI15:1,2010-11-10T23:00:00Z,28.8332,-90.8320,1015.19,11111222 
WAVCIS,ioos:station:WAVCIS:CSI15:1,2010-11-11T00:00:00Z,28.8332,-90.8320,1015.88,11111222 
WAVCIS,ioos:station:WAVCIS:CSI15:1,2010-11-11T01:00:00Z,28.8332,-90.8320,1016.34,11111222 
WAVCIS,ioos:station:WAVCIS:CSI15:1,2010-11-11T02:00:00Z,28.8332,-90.8320,1016.84,11111222 
WAVCIS,ioos:station:WAVCIS:CSI15:1,2010-11-11T03:00:00Z,28.8332,-90.8320,1017.09,11111222 
WAVCIS,ioos:station:WAVCIS:CSI15:1,2010-11-11T04:00:00Z,28.8332,-90.8320,1017.49,11111222 
WAVCIS,ioos:station:WAVCIS:CSI15:1,2010-11-11T05:00:00Z,28.8332,-90.8320,1017.64,11111222 
WAVCIS,ioos:station:WAVCIS:CSI15:1,2010-11-11T06:00:00Z,28.8332,-90.8320,1017.54,11111222 
WAVCIS,ioos:station:WAVCIS:CSI15:1,2010-11-11T07:00:00Z,28.8332,-90.8320,1017.29,11111222 
WAVCIS,ioos:station:WAVCIS:CSI15:1,2010-11-11T08:00:00Z,28.8332,-90.8320,1017.25,11111222 
WAVCIS,ioos:station:WAVCIS:CSI15:1,2010-11-11T09:00:00Z,28.8332,-90.8320,1017.38,11111222 
WAVCIS,ioos:station:WAVCIS:CSI15:1,2010-11-11T10:00:00Z,28.8332,-90.8320,1017.82,11111222 
WAVCIS,ioos:station:WAVCIS:CSI15:1,2010-11-11T11:00:00Z,28.8332,-90.8320,1018.14,11111222 
WAVCIS,ioos:station:WAVCIS:CSI15:1,2010-11-11T12:00:00Z,28.8332,-90.8320,1018.53,11111222 
WAVCIS,ioos:station:WAVCIS:CSI15:1,2010-11-11T13:00:00Z,28.8332,-90.8320,1019.17,11111222 
WAVCIS,ioos:station:WAVCIS:CSI15:1,2010-11-11T14:00:00Z,28.8332,-90.8320,1019.69,11111222 
WAVCIS,ioos:station:WAVCIS:CSI15:1,2010-11-11T15:00:00Z,28.8332,-90.8320,1020.49,11111222 
WAVCIS,ioos:station:WAVCIS:CSI15:1,2010-11-11T16:00:00Z,28.8332,-90.8320,1020.98,11111222 
WAVCIS,ioos:station:WAVCIS:CSI15:1,2010-11-11T17:00:00Z,28.8332,-90.8320,1020.55,11111222 
WAVCIS,ioos:station:WAVCIS:CSI15:1,2010-11-11T18:00:00Z,28.8332,-90.8320,1020.2,11111222 
WAVCIS,ioos:station:WAVCIS:CSI15:1,2010-11-11T19:00:00Z,28.8332,-90.8320,1019.85,11111222 
WAVCIS,ioos:station:WAVCIS:CSI15:1,2010-11-11T20:00:00Z,28.8332,-90.8320,1019.6,11111222 
WAVCIS,ioos:station:WAVCIS:CSI15:1,2010-11-11T21:00:00Z,28.8332,-90.8320,1019.63,11111222 
WAVCIS,ioos:station:WAVCIS:CSI15:1,2010-11-11T22:00:00Z,28.8332,-90.8320,1019.84,11111222 